Regional Weather Roundup
Issued by NWS

Home | Current Version | Previous Version | Text Only | Print | Product List | Glossary On
Versions: 1 2 3 4 5 6 7 8 9 10 11 12 13 14 15 16 17 18 19 20 21 22 23 24 25 26 27 28 29 30 31 32 33 34 35 36 37 38 39 40 41 42 43 44 45 46 47 48 49 50
455
ASUS43 KTOP 251759
RWRKS

WEATHER ROUNDUP FOR KANSAS
NATIONAL WEATHER SERVICE GOODLAND KS
100 PM CDT THU MAY 25 2017

NOTE:  "FAIR" INDICATES FEW OR NO CLOUDS BELOW 12,000 FEET WITH NO
SIGNIFICANT WEATHER AND/OR OBSTRUCTIONS TO VISIBILITY.

KSZ001>006-013>018-027>032-041>047-251900-
NORTHWEST KANSAS

CITY           SKY/WX    TMP DP  RH WIND       PRES   REMARKS
GOODLAND       SUNNY     81  50  33 VRB7      29.51F
6HR MIN TEMP:  50; 6HR MAX TEMP:  81;

HAYS           SUNNY     72  54  53 S17G24    29.50F
HILL CITY      SUNNY     76  53  44 S10       29.50F
6HR MIN TEMP:  49; 6HR MAX TEMP:  76;

RUSSELL        SUNNY     70  53  54 S22G32    29.50
6HR MIN TEMP:  51; 6HR MAX TEMP:  70;

$$

KSZ061>065-074>080-084>089-251900-
SOUTHWEST KANSAS

CITY           SKY/WX    TMP DP  RH WIND       PRES   REMARKS
DODGE CITY     SUNNY     74  55  51 SE13      29.54F
6HR MIN TEMP:  52; 6HR MAX TEMP:  74;

ELKHART          N/A     89  46  22 W12         N/A
GARDEN CITY    SUNNY     79  51  37 S7        29.52F
6HR MIN TEMP:  49; 6HR MAX TEMP:  79;

GREAT BEND     SUNNY     69  54  58 S10       29.55F
LIBERAL        CLOUDY    80  53  39 CALM      29.55R
$$

KSZ066>073-081>083-090>101-251900-
SOUTHEAST KANSAS

CITY           SKY/WX    TMP DP  RH WIND       PRES   REMARKS
CHANUTE        SUNNY     74  52  46 SE15G22   29.66F
6HR MIN TEMP:  49; 6HR MAX TEMP:  74;

COFFEYVILLE    SUNNY     76  56  49 SE16G24   29.66F
6HR MIN TEMP:  49; 6HR MAX TEMP:  76;

HUTCHINSON     MOSUNNY   75  52  44 S22G29    29.55S
6HR MIN TEMP:  53; 6HR MAX TEMP:  75;

MEDICINE LODGE   N/A     75  52  44 S20G25    29.52F
NEWTON         MOSUNNY   72  52  49 S23G30    29.58R
PARSONS        SUNNY     75  52  44 S10G23    29.67F
6HR MIN TEMP:  47; 6HR MAX TEMP:  75;

WICHITA INTL   MOSUNNY   72  52  49 SE24G35   29.54F
6HR MIN TEMP:  52; 6HR MAX TEMP:  72; 6HR PCP: TRACE;

WICHITA JABRA  CLOUDY    70  51  51 S23G35    29.54F
6HR MIN TEMP:  51; 6HR MAX TEMP:  73;

WINFIELD       PTSUNNY   74  54  49 S18G28    29.61F
6HR MIN TEMP:  53; 6HR MAX TEMP:  74;

$$

KSZ007>012-019>026-033>040-048>060-102>105-251900-
NORTHEAST KANSAS

CITY           SKY/WX    TMP DP  RH WIND       PRES   REMARKS
CONCORDIA      PTSUNNY   68  52  56 S20G29    29.55F
6HR MIN TEMP:  52; 6HR MAX TEMP:  71; 6HR PCP: TRACE;

EMPORIA        SUNNY     73  51  46 S24G30    29.62F
6HR MIN TEMP:  49; 6HR MAX TEMP:  73;

LAWRENCE       SUNNY     74  52  46 SE16      29.66F
6HR MIN TEMP:  49; 6HR MAX TEMP:  74;

MANHATTAN      SUNNY     75  50  41 S21       29.58F
6HR MIN TEMP:  49; 6HR MAX TEMP:  76; 6HR PCP: TRACE;

OLATHE IND     SUNNY     72  50  45 SE16G24   29.67F
6HR MIN TEMP:  48; 6HR MAX TEMP:  72;

OLATHE EXE     SUNNY     70  52  52 S13       29.68F
6HR MIN TEMP:  49; 6HR MAX TEMP:  70;

SALINA         MOSUNNY   72  51  47 S16G24    29.57S
6HR MIN TEMP:  54; 6HR MAX TEMP:  76;

TOPEKA BILLARD SUNNY     74  52  46 S17G24    29.63F
6HR MIN TEMP:  49; 6HR MAX TEMP:  74;

TOPEKA FORBES  SUNNY     75  52  44 S14       29.63F
6HR MIN TEMP:  48; 6HR MAX TEMP:  75;

$$




USA.gov is the U.S. government's official web portal to all federal, state and local government web resources and services.